Location: Goettingen
(51.5300°N, 9.9433°E)
Time: 18:44:12
(UTC+02:00)

ISS - Pass Details

Date: 14 September 2018
Orbit: 403 x 408 km, 51.6° (Epoch: 23 September)

Event Time Altitude Azimuth Distance (km) Brightness Sun altitude
Exits shadow 05:49:15 16° 267° (W) 1,170 -2.1 -10.5°
Maximum altitude 05:51:25 33° 208° (SSW) 701 -3.0 -10.2°
Drops below altitude 10° 05:54:24 10° 143° (SE) 1,457 -0.8 -9.7°
Sets 05:56:35 0° 133° (SE) 2,312 0.4 -9.4°
